When you browse on this site, cookies collect data to enhance your experience and personalize the content and advertising you see.
Visit our Privacy Policy to learn more. By continuing to use the site, you agree to this use of cookies and data.
  • In Sweden
  • List of Countries
  • For 7 days
  • Water Temperature
  • Satellite Maps
  • Weather Map
  • Weather Widgets
  • user-avatar
    Login

    Hourly Weather Osowie

    Today, 20 July, Saturday

    Time Temperature Precipitation Wind Pressure Humidity
    00:00 +19°C° 0.6 mm 1 mps 752 mmHg 92%
    01:00 +19°C° 0.6 mm 1 mps 752 mmHg 93%
    02:00 +18°C° 0 mm 1 mps 752 mmHg 93%
    03:00 +17°C° 0 mm 2 mps 752 mmHg 94%
    04:00 +17°C° 0 mm 2 mps 752 mmHg 94%
    05:00 +18°C° 0 mm 2 mps 752 mmHg 90%
    06:00 +19°C° 0 mm 2 mps 752 mmHg 86%
    07:00 +20°C° 0 mm 2 mps 753 mmHg 82%
    08:00 +23°C° 0 mm 2 mps 753 mmHg 75%
    09:00 +24°C° 0 mm 2 mps 753 mmHg 68%
    10:00 +26°C° 0 mm 2 mps 753 mmHg 61%
    11:00 +26°C° 0 mm 2 mps 753 mmHg 57%
    12:00 +27°C° 0 mm 2 mps 752 mmHg 54%
    13:00 +28°C° 0 mm 2 mps 752 mmHg 50%
    14:00 +28°C° 0 mm 2 mps 752 mmHg 50%
    15:00 +28°C° 0 mm 1 mps 752 mmHg 50%
    16:00 +28°C° 0 mm 1 mps 752 mmHg 50%
    17:00 +27°C° 0 mm 1 mps 752 mmHg 54%
    18:00 +26°C° 0 mm 1 mps 752 mmHg 57%
    19:00 +25°C° 0 mm 1 mps 752 mmHg 61%
    20:00 +24°C° 0 mm 1 mps 753 mmHg 62%
    21:00 +24°C° 0 mm 1 mps 753 mmHg 62%
    22:00 +23°C° 0 mm 2 mps 753 mmHg 63%
    23:00 +21°C° 0 mm 2 mps 753 mmHg 65%

    Tomorrow, 21 July, Sunday

    Time Temperature Precipitation Wind Pressure Humidity
    00:00 +21°C° 0 mm 2 mps 753 mmHg 67%
    01:00 +20°C° 0 mm 3 mps 753 mmHg 69%
    02:00 +20°C° 0 mm 3 mps 753 mmHg 71%
    03:00 +20°C° 0 mm 3 mps 753 mmHg 74%
    04:00 +20°C° 0 mm 3 mps 752 mmHg 76%
    05:00 +21°C° 0.1 mm 3 mps 752 mmHg 75%
    06:00 +22°C° 0.1 mm 3 mps 752 mmHg 74%
    07:00 +23°C° 0.1 mm 4 mps 752 mmHg 74%
    08:00 +25°C° 0.3 mm 4 mps 752 mmHg 71%
    09:00 +27°C° 0.3 mm 4 mps 752 mmHg 69%
    10:00 +28°C° 0.3 mm 5 mps 752 mmHg 66%
    11:00 +28°C° 1.7 mm 5 mps 752 mmHg 64%
    12:00 +29°C° 1.7 mm 5 mps 752 mmHg 61%
    13:00 +29°C° 1.7 mm 5 mps 752 mmHg 59%
    14:00 +29°C° 0.7 mm 5 mps 752 mmHg 60%
    15:00 +28°C° 0.7 mm 6 mps 752 mmHg 61%
    16:00 +27°C° 0.7 mm 6 mps 753 mmHg 62%
    17:00 +26°C° 0.3 mm 5 mps 753 mmHg 67%
    18:00 +25°C° 0.3 mm 5 mps 753 mmHg 72%
    19:00 +22°C° 0.3 mm 4 mps 753 mmHg 77%
    20:00 +21°C° 0.2 mm 4 mps 754 mmHg 80%
    21:00 +20°C° 0.2 mm 4 mps 754 mmHg 83%
    22:00 +19°C° 0.2 mm 3 mps 755 mmHg 87%
    23:00 +19°C° 0 mm 4 mps 755 mmHg 89%

    Day after tomorrow, 22 July, Monday

    Time Temperature Precipitation Wind Pressure Humidity
    00:00 +18°C° 0 mm 4 mps 755 mmHg 91%
    01:00 +17°C° 0 mm 4 mps 755 mmHg 93%
    02:00 +17°C° 0 mm 4 mps 756 mmHg 94%
    03:00 +17°C° 0 mm 3 mps 756 mmHg 95%
    04:00 +16°C° 0 mm 3 mps 756 mmHg 96%
    05:00 +17°C° 0 mm 4 mps 756 mmHg 92%
    06:00 +17°C° 0 mm 5 mps 756 mmHg 88%
    07:00 +17°C° 0 mm 5 mps 757 mmHg 84%
    08:00 +19°C° 0 mm 6 mps 757 mmHg 80%
    09:00 +19°C° 0 mm 6 mps 757 mmHg 77%
    10:00 +20°C° 0 mm 6 mps 757 mmHg 74%
    11:00 +21°C° 0 mm 6 mps 757 mmHg 69%
    12:00 +22°C° 0 mm 6 mps 757 mmHg 64%
    13:00 +23°C° 0 mm 6 mps 757 mmHg 60%
    14:00 +23°C° 0 mm 7 mps 757 mmHg 59%
    15:00 +23°C° 0 mm 7 mps 757 mmHg 58%
    16:00 +23°C° 0 mm 7 mps 756 mmHg 57%
    17:00 +22°C° 0 mm 6 mps 756 mmHg 61%
    18:00 +21°C° 0 mm 5 mps 756 mmHg 65%
    19:00 +20°C° 0 mm 4 mps 756 mmHg 69%
    20:00 +19°C° 0 mm 4 mps 757 mmHg 71%
    21:00 +18°C° 0 mm 4 mps 757 mmHg 73%
    22:00 +17°C° 0 mm 3 mps 757 mmHg 75%
    23:00 +16°C° 0 mm 3 mps 757 mmHg 77%

    23 July, Tuesday

    Time Temperature Precipitation Wind Pressure Humidity
    00:00 +14°C° 0 mm 3 mps 757 mmHg 79%
    01:00 +14°C° 0 mm 3 mps 757 mmHg 82%
    02:00 +14°C° 0 mm 3 mps 757 mmHg 84%
    03:00 +13°C° 0 mm 3 mps 756 mmHg 85%
    04:00 +13°C° 0 mm 3 mps 756 mmHg 87%
    05:00 +14°C° 0 mm 4 mps 756 mmHg 84%
    06:00 +17°C° 0 mm 4 mps 756 mmHg 81%
    07:00 +17°C° 0 mm 5 mps 756 mmHg 77%
    08:00 +19°C° 0 mm 5 mps 756 mmHg 72%
    09:00 +21°C° 0 mm 5 mps 756 mmHg 67%
    10:00 +22°C° 0 mm 5 mps 756 mmHg 62%
    11:00 +23°C° 0 mm 5 mps 756 mmHg 61%
    12:00 +23°C° 0 mm 5 mps 756 mmHg 61%
    13:00 +24°C° 0 mm 6 mps 756 mmHg 61%
    14:00 +25°C° 0 mm 5 mps 756 mmHg 62%
    15:00 +25°C° 0 mm 5 mps 755 mmHg 63%
    16:00 +25°C° 0 mm 4 mps 755 mmHg 64%
    17:00 +23°C° 0 mm 4 mps 755 mmHg 67%
    18:00 +22°C° 0 mm 3 mps 755 mmHg 71%
    19:00 +21°C° 0 mm 2 mps 755 mmHg 75%
    20:00 +21°C° 0 mm 2 mps 755 mmHg 76%
    21:00 +20°C° 0 mm 2 mps 755 mmHg 77%
    22:00 +19°C° 0 mm 2 mps 755 mmHg 78%
    23:00 +19°C° 0 mm 2 mps 755 mmHg 81%

    24 July, Wednesday

    Time Temperature Precipitation Wind Pressure Humidity
    00:00 +19°C° 0 mm 2 mps 755 mmHg 83%
    01:00 +18°C° 0 mm 3 mps 755 mmHg 86%
    02:00 +18°C° 0 mm 3 mps 755 mmHg 89%
    03:00 +18°C° 0 mm 3 mps 755 mmHg 92%
    04:00 +17°C° 0 mm 3 mps 754 mmHg 96%
    05:00 +19°C° 0 mm 3 mps 755 mmHg 90%
    06:00 +20°C° 0 mm 4 mps 755 mmHg 85%
    07:00 +22°C° 0 mm 4 mps 755 mmHg 80%
    08:00 +23°C° 0 mm 4 mps 755 mmHg 75%
    09:00 +25°C° 0 mm 4 mps 755 mmHg 70%
    10:00 +27°C° 0 mm 5 mps 754 mmHg 65%
    11:00 +27°C° 0 mm 5 mps 754 mmHg 63%
    12:00 +28°C° 0 mm 5 mps 754 mmHg 62%
    13:00 +28°C° 0 mm 5 mps 754 mmHg 60%
    14:00 +28°C° 0 mm 4 mps 754 mmHg 59%
    15:00 +29°C° 0 mm 4 mps 754 mmHg 59%
    16:00 +29°C° 0 mm 4 mps 754 mmHg 58%
    17:00 +28°C° 0 mm 3 mps 754 mmHg 62%
    18:00 +27°C° 0 mm 2 mps 754 mmHg 67%
    19:00 +26°C° 0 mm 1 mps 754 mmHg 71%
    20:00 +24°C° 0 mm 1 mps 755 mmHg 74%
    21:00 +23°C° 0 mm 1 mps 755 mmHg 77%
    22:00 +22°C° 0 mm 1 mps 755 mmHg 80%
    23:00 +20°C° 0 mm 0 mps 755 mmHg 82%

    25 July, Thursday

    Time Temperature Precipitation Wind Pressure Humidity
    00:00 +19°C° 0 mm 0 mps 756 mmHg 83%
    01:00 +19°C° 0 mm 0 mps 756 mmHg 85%
    02:00 +18°C° 0 mm 0 mps 756 mmHg 86%
    03:00 +18°C° 0 mm 0 mps 756 mmHg 87%
    04:00 +20°C° 0 mm 1 mps 756 mmHg 88%
    05:00 +21°C° 0 mm 1 mps 756 mmHg 82%
    06:00 +23°C° 0 mm 1 mps 756 mmHg 77%
    07:00 +25°C° 0 mm 1 mps 756 mmHg 72%
    08:00 +26°C° 0 mm 1 mps 756 mmHg 66%
    09:00 +28°C° 0 mm 1 mps 756 mmHg 60%
    10:00 +29°C° 0 mm 2 mps 756 mmHg 53%
    11:00 +30°C° 0 mm 2 mps 756 mmHg 49%
    12:00 +31°C° 0 mm 2 mps 756 mmHg 44%
    13:00 +31°C° 0 mm 2 mps 756 mmHg 40%
    14:00 +31°C° 0 mm 3 mps 756 mmHg 40%
    15:00 +31°C° 0 mm 3 mps 755 mmHg 40%
    16:00 +31°C° 0 mm 3 mps 755 mmHg 40%
    17:00 +29°C° 0 mm 3 mps 755 mmHg 48%
    18:00 +28°C° 0 mm 3 mps 755 mmHg 56%
    19:00 +26°C° 0 mm 3 mps 755 mmHg 64%
    20:00 +24°C° 0 mm 3 mps 756 mmHg 70%
    21:00 +22°C° 0 mm 3 mps 756 mmHg 76%
    22:00 +20°C° 0 mm 3 mps 756 mmHg 81%
    23:00 +19°C° 0 mm 3 mps 756 mmHg 82%
    Show more